Terug naar catalogus

STARLINK-4077

ActiefCommunicatieVLEO
NORAD 53154·PAYLOAD·🇺🇸 United States

Gelanceerd Jul 17, 2022 vanaf Cape Canaveral Space Force Station

Loading…

Volgende Passages (komende 24 uur)

TLE

VersSource: CelesTrak SupGP

Epoch: Sep 14, 2026, 20:39 UTC

1 53154C 22083Y   26257.86090278  .00032271  00000+0  92328-3 0  2573
2 53154  53.1601  28.2838 0001257  75.4190 162.8373 15.35383057    19

Volg STARLINK-4077 in realtime met AllMySat

Download on the App Store